Lambertville, MI

5:18 PM EDT on June 27, 2017 (GMT -0400)
Lambertville

Weather History for KDUH - January, 2013

Change the Weather History Date:

Thursday, January 24, 2013

  Actual Average (KTOL) Record (KTOL)
Temperature  
Mean Temperature 14 °F -  
Max Temperature 21 °F 33 °F 64 °F (1909)
Min Temperature 8 °F 16 °F -17 °F (1963)
Degree Days  
Heating Degree Days 50    
Moisture  
Dew Point 6 °F    
Average Humidity 67    
Maximum Humidity 84    
Minimum Humidity 41    
Precipitation  
Precipitation 0.00 in - - ()
Sea Level Pressure  
Sea Level Pressure 30.44 in    
Wind  
Wind Speed 5 mph (NW)    
Max Wind Speed 10 mph    
Max Gust Speed -    
Visibility 10 miles    
Events Snow    
Averages and records for this station are not official NWS values.
T = Trace of Precipitation, MM = Missing Value Source: NWS Daily Summary

Daily Weather History Graph

Daily Weather History Graph

Search for Another Location

Airport or City:

Trip Planner

Search our weather history database for the weather conditions in past years. The results will help you decide how hot, cold, wet, or windy it might be!

Date:

Astronomy

Jan. 24, 2013 Rise Set
Actual Time 7:53 AM EST 5:40 PM EST
Civil Twilight 7:23 AM EST 6:10 PM EST
Nautical Twilight 6:49 AM EST 6:44 PM EST
Astronomical Twilight 6:17 AM EST 7:17 PM EST
Moon 3:41 PM EST (1/24) 5:51 AM EST (1/24)
Length of Visible Light 10h 46m
Length of Day
9h 46m
Waxing Gibbous, 94% of the Moon is Illuminated
Jan 24
Waxing Gibbous
Jan 26
Full
Feb 3
Last Quarter
Feb 10
New
Feb 17
First Quarter

Hourly Weather History & Observations

Time (EST) Temp. Windchill Dew Point Humidity Pressure Visibility Wind Dir Wind Speed Gust Speed Precip Events Conditions
12:15 AM 16.5 °F - 12.0 °F 82% 30.09 in 1.5 mi Calm Calm - N/A Snow Light Snow
12:35 AM 16.7 °F 11.2 °F 12.4 °F 83% 30.10 in 1.2 mi NNW 3.5 mph - N/A Snow Light Snow
12:55 AM 16.3 °F 7.8 °F 12.4 °F 84% 30.11 in 3.0 mi NNW 5.8 mph - N/A Snow Light Snow
1:15 AM 15.8 °F 5.1 °F 11.1 °F 82% 30.12 in 7.0 mi NNW 8.1 mph - N/A Snow Light Snow
1:35 AM 14.7 °F 7.3 °F 9.9 °F 81% 30.13 in 10.0 mi NW 4.6 mph - N/A   Scattered Clouds
1:55 AM 14.0 °F 2.9 °F 8.6 °F 79% 30.15 in 10.0 mi NW 8.1 mph - N/A   Mostly Cloudy
2:16 AM 14.0 °F 3.9 °F 8.6 °F 79% 30.17 in 10.0 mi NNW 6.9 mph - N/A   Overcast
2:35 AM 13.6 °F 2.5 °F 7.7 °F 77% 30.19 in 10.0 mi NNW 8.1 mph - N/A   Scattered Clouds
2:55 AM 12.9 °F 0.7 °F 7.3 °F 78% 30.20 in 10.0 mi NNW 9.2 mph - N/A   Clear
3:15 AM 12.6 °F 2.2 °F 7.2 °F 79% 30.22 in 10.0 mi NNW 6.9 mph - N/A   Clear
3:35 AM 12.2 °F 1.7 °F 6.8 °F 79% 30.24 in 10.0 mi NNW 6.9 mph - N/A   Clear
3:56 AM 11.7 °F 1.1 °F 6.1 °F 78% 30.26 in 10.0 mi NW 6.9 mph - N/A   Clear
4:15 AM 11.8 °F 1.3 °F 5.9 °F 77% 30.27 in 10.0 mi NW 6.9 mph - N/A Snow Light Snow
4:35 AM 11.1 °F 3.1 °F 5.4 °F 78% 30.28 in 10.0 mi NW 4.6 mph - N/A   Clear
4:55 AM 10.8 °F 0.0 °F 5.4 °F 79% 30.30 in 10.0 mi NW 6.9 mph - N/A   Clear
5:15 AM 10.6 °F -1.3 °F 5.4 °F 79% 30.32 in 10.0 mi NNW 8.1 mph - N/A   Clear
5:36 AM 10.4 °F -3.3 °F 5.0 °F 79% 30.34 in 10.0 mi NNW 10.4 mph - N/A   Clear
5:55 AM 9.9 °F -4.0 °F 4.6 °F 79% 30.35 in 10.0 mi NNW 10.4 mph - N/A   Clear
6:15 AM 9.5 °F -3.5 °F 4.1 °F 79% 30.36 in 10.0 mi NNW 9.2 mph - N/A   Clear
6:36 AM 9.3 °F -3.8 °F 4.1 °F 79% 30.37 in 10.0 mi NNW 9.2 mph - N/A   Clear
6:55 AM 9.1 °F -3.0 °F 3.9 °F 79% 30.39 in 10.0 mi NNW 8.1 mph - N/A   Clear
7:15 AM 9.1 °F -1.9 °F 3.7 °F 79% 30.40 in 10.0 mi NNW 6.9 mph - N/A   Clear
7:35 AM 8.8 °F -2.4 °F 3.2 °F 78% 30.42 in 10.0 mi NNW 6.9 mph - N/A   Clear
7:55 AM 8.8 °F -2.4 °F 3.2 °F 78% 30.44 in 10.0 mi NNW 6.9 mph - N/A   Clear
8:15 AM 8.6 °F -1.3 °F 3.0 °F 78% 30.45 in 10.0 mi NW 5.8 mph - N/A   Clear
8:35 AM 9.3 °F -1.7 °F 3.4 °F 77% 30.46 in 10.0 mi NNW 6.9 mph - N/A   Clear
8:55 AM 10.4 °F -2.4 °F 3.9 °F 75% 30.47 in 10.0 mi NNW 9.2 mph - N/A   Clear
9:15 AM 11.1 °F -1.6 °F 4.1 °F 73% 30.48 in 10.0 mi North 9.2 mph - N/A   Clear
9:35 AM 12.2 °F -0.2 °F 4.6 °F 72% 30.50 in 10.0 mi NNW 9.2 mph - N/A   Clear
9:56 AM 13.6 °F 2.5 °F 5.5 °F 70% 30.52 in 10.0 mi NNW 8.1 mph - N/A   Clear
10:15 AM 14.7 °F 5.9 °F 5.7 °F 68% 30.53 in 10.0 mi North 5.8 mph - N/A   Clear
10:35 AM 15.8 °F 6.1 °F 5.7 °F 64% 30.55 in 10.0 mi North 6.9 mph - N/A   Clear
10:55 AM 16.5 °F 8.1 °F 6.1 °F 64% 30.56 in 10.0 mi North 5.8 mph - N/A   Clear
11:15 AM 17.6 °F 9.3 °F 5.4 °F 59% 30.58 in 10.0 mi North 5.8 mph - N/A   Clear
11:35 AM 18.3 °F 11.5 °F 5.4 °F 57% 30.58 in 10.0 mi NNW 4.6 mph - N/A   Clear
11:55 AM 19.0 °F 12.3 °F 6.1 °F 57% 30.57 in 10.0 mi NNW 4.6 mph - N/A   Clear
12:15 PM 19.9 °F 11.1 °F 5.5 °F 54% 30.56 in 10.0 mi NNW 6.9 mph - N/A   Clear
12:36 PM 20.1 °F 12.3 °F 5.7 °F 54% 30.56 in 10.0 mi NW 5.8 mph - N/A   Clear
12:55 PM 20.8 °F 13.2 °F 6.3 °F 53% 30.55 in 10.0 mi NW 5.8 mph - N/A   Clear
1:15 PM 21.2 °F 13.6 °F 6.8 °F 54% 30.55 in 10.0 mi West 5.8 mph - N/A   Clear
1:35 PM 21.7 °F 13.2 °F 7.0 °F 53% 30.55 in 10.0 mi WNW 6.9 mph - N/A   Clear
1:55 PM 21.6 °F 16.8 °F 6.1 °F 51% 30.55 in 10.0 mi NNW 3.5 mph - N/A   Clear
2:16 PM 21.0 °F 16.2 °F 5.2 °F 51% 30.55 in 10.0 mi NNW 3.5 mph - N/A   Clear
2:35 PM 21.7 °F 15.5 °F 4.5 °F 47% 30.54 in 10.0 mi WNW 4.6 mph - N/A   Clear
2:55 PM 21.7 °F 14.3 °F 2.5 °F 43% 30.55 in 10.0 mi WNW 5.8 mph - N/A   Clear
3:15 PM 21.2 °F 11.7 °F 2.1 °F 44% 30.55 in 10.0 mi NW 8.1 mph - N/A   Clear
3:35 PM 20.8 °F 13.2 °F 1.9 °F 44% 30.55 in 10.0 mi WNW 5.8 mph - N/A   Clear
3:56 PM 20.1 °F 12.3 °F -0.4 °F 41% 30.55 in 10.0 mi NW 5.8 mph - N/A   Clear
4:15 PM 19.8 °F 11.9 °F 2.1 °F 46% 30.55 in 10.0 mi WNW 5.8 mph - N/A   Clear
4:35 PM 18.9 °F - 1.8 °F 47% 30.56 in 10.0 mi Calm Calm - N/A   Clear
4:55 PM 18.5 °F - 1.8 °F 48% 30.56 in 10.0 mi Calm Calm - N/A   Clear
5:15 PM 18.5 °F - 2.5 °F 50% 30.55 in 10.0 mi Calm Calm - N/A   Clear
5:35 PM 18.3 °F - 2.7 °F 51% 30.56 in 10.0 mi Calm Calm - N/A   Clear
5:55 PM 16.7 °F - 3.0 °F 55% 30.56 in 10.0 mi Calm Calm - N/A   Clear
6:15 PM 14.9 °F - 3.9 °F 62% 30.56 in 10.0 mi Calm Calm - N/A   Clear
6:35 PM 14.5 °F - 3.7 °F 62% 30.56 in 10.0 mi Calm Calm - N/A   Clear
6:55 PM 13.8 °F - 4.8 °F 67% 30.56 in 10.0 mi Calm Calm - N/A   Clear
7:15 PM 13.5 °F - 5.5 °F 71% 30.56 in 10.0 mi Calm Calm - N/A   Clear
7:35 PM 13.1 °F - 4.8 °F 70% 30.55 in 10.0 mi Calm Calm - N/A   Clear
7:55 PM 12.6 °F - 4.5 °F 70% 30.54 in 10.0 mi Calm Calm - N/A   Clear
8:16 PM 12.7 °F - 5.0 °F 71% 30.53 in 10.0 mi Calm Calm - N/A   Clear
8:35 PM 12.6 °F - 5.0 °F 72% 30.52 in 10.0 mi Calm Calm - N/A   Clear
8:55 PM 12.7 °F - 6.4 °F 76% 30.52 in 10.0 mi Calm Calm - N/A   Clear
9:15 PM 13.5 °F - 5.9 °F 72% 30.52 in 10.0 mi Calm Calm - N/A   Clear
9:35 PM 13.8 °F - 6.1 °F 71% 30.52 in 10.0 mi Calm Calm - N/A   Clear
9:55 PM 14.4 °F - 7.3 °F 74% 30.51 in 7.0 mi Calm Calm - N/A   Clear
10:15 PM 14.9 °F - 8.4 °F 76% 30.51 in 10.0 mi Calm Calm - N/A   Clear
10:35 PM 15.4 °F - 7.5 °F 71% 30.51 in 7.0 mi Calm Calm - N/A   Clear
10:55 PM 16.7 °F 11.2 °F 7.5 °F 67% 30.50 in 10.0 mi SSE 3.5 mph - N/A   Clear
11:15 PM 17.6 °F 12.3 °F 7.7 °F 65% 30.50 in 10.0 mi SSE 3.5 mph - N/A   Clear
11:35 PM 17.6 °F 10.7 °F 7.7 °F 65% 30.50 in 10.0 mi SSE 4.6 mph - N/A   Clear
11:55 PM 17.6 °F 10.7 °F 7.5 °F 65% 30.49 in 10.0 mi SSE 4.6 mph - N/A   Scattered Clouds